When you browse on this site, cookies collect data to enhance your experience and personalize the content and advertising you see.
Visit our Privacy Policy to learn more. By continuing to use the site, you agree to this use of cookies and data.
  • In Romania
  • List of Countries
  • For 7 days
  • Water Temperature
  • Satellite Maps
  • Weather Map
  • Weather Widgets
  • user-avatar
    Login

    Hourly Weather Louviers

    Today, 17 June, Monday

    Time Temperature Precipitation Wind Pressure Humidity
    00:00 +13°C° 0 mm 1 mps 757 mmHg 90%
    01:00 +13°C° 0 mm 1 mps 757 mmHg 90%
    02:00 +12°C° 0 mm 1 mps 757 mmHg 91%
    03:00 +12°C° 0 mm 1 mps 757 mmHg 91%
    04:00 +13°C° 0 mm 1 mps 757 mmHg 90%
    05:00 +14°C° 0 mm 1 mps 757 mmHg 88%
    06:00 +15°C° 0 mm 1 mps 757 mmHg 87%
    07:00 +18°C° 0 mm 1 mps 757 mmHg 83%
    08:00 +19°C° 0 mm 1 mps 757 mmHg 79%
    09:00 +21°C° 0 mm 1 mps 757 mmHg 74%
    10:00 +21°C° 0 mm 1 mps 757 mmHg 71%
    11:00 +22°C° 0 mm 1 mps 756 mmHg 69%
    12:00 +23°C° 0 mm 1 mps 756 mmHg 66%
    13:00 +23°C° 0 mm 1 mps 756 mmHg 64%
    14:00 +24°C° 0 mm 1 mps 756 mmHg 63%
    15:00 +24°C° 0 mm 1 mps 755 mmHg 61%
    16:00 +24°C° 0 mm 1 mps 755 mmHg 66%
    17:00 +24°C° 0 mm 1 mps 755 mmHg 70%
    18:00 +23°C° 0 mm 1 mps 755 mmHg 75%
    19:00 +21°C° 0 mm 1 mps 755 mmHg 80%
    20:00 +18°C° 0 mm 2 mps 755 mmHg 85%
    21:00 +16°C° 0 mm 2 mps 755 mmHg 91%
    22:00 +15°C° 0 mm 2 mps 755 mmHg 92%
    23:00 +15°C° 0 mm 2 mps 755 mmHg 93%

    Tomorrow, 18 June, Tuesday

    Time Temperature Precipitation Wind Pressure Humidity
    00:00 +14°C° 0 mm 2 mps 754 mmHg 94%
    01:00 +14°C° 0 mm 1 mps 754 mmHg 94%
    02:00 +14°C° 0 mm 1 mps 754 mmHg 94%
    03:00 +14°C° 0 mm 1 mps 753 mmHg 95%
    04:00 +15°C° 0 mm 2 mps 753 mmHg 94%
    05:00 +15°C° 0 mm 2 mps 753 mmHg 94%
    06:00 +16°C° 0 mm 2 mps 753 mmHg 93%
    07:00 +18°C° 0 mm 3 mps 753 mmHg 89%
    08:00 +20°C° 0 mm 3 mps 753 mmHg 84%
    09:00 +21°C° 0 mm 3 mps 753 mmHg 79%
    10:00 +22°C° 0.2 mm 3 mps 752 mmHg 76%
    11:00 +24°C° 0.2 mm 3 mps 752 mmHg 73%
    12:00 +25°C° 0.2 mm 3 mps 751 mmHg 70%
    13:00 +25°C° 0.1 mm 3 mps 751 mmHg 69%
    14:00 +26°C° 0.1 mm 3 mps 750 mmHg 67%
    15:00 +26°C° 0.1 mm 3 mps 750 mmHg 65%
    16:00 +26°C° 0.1 mm 2 mps 750 mmHg 68%
    17:00 +26°C° 0.1 mm 2 mps 749 mmHg 71%
    18:00 +25°C° 0.1 mm 2 mps 749 mmHg 74%
    19:00 +23°C° 0 mm 2 mps 749 mmHg 78%
    20:00 +21°C° 0 mm 2 mps 749 mmHg 83%
    21:00 +19°C° 0 mm 3 mps 748 mmHg 88%
    22:00 +19°C° 0.2 mm 3 mps 748 mmHg 89%
    23:00 +19°C° 0.2 mm 4 mps 748 mmHg 90%

    Day after tomorrow, 19 June, Wednesday

    Time Temperature Precipitation Wind Pressure Humidity
    00:00 +18°C° 0.2 mm 4 mps 747 mmHg 91%
    01:00 +18°C° 0.8 mm 4 mps 747 mmHg 92%
    02:00 +18°C° 0.8 mm 4 mps 747 mmHg 93%
    03:00 +17°C° 0.8 mm 4 mps 747 mmHg 94%
    04:00 +16°C° 0 mm 5 mps 747 mmHg 92%
    05:00 +16°C° 0 mm 5 mps 747 mmHg 91%
    06:00 +16°C° 0 mm 6 mps 747 mmHg 89%
    07:00 +17°C° 0 mm 7 mps 747 mmHg 85%
    08:00 +18°C° 0 mm 7 mps 747 mmHg 82%
    09:00 +20°C° 0 mm 8 mps 748 mmHg 78%
    10:00 +20°C° 0.3 mm 8 mps 748 mmHg 80%
    11:00 +20°C° 0.3 mm 8 mps 749 mmHg 81%
    12:00 +20°C° 0.3 mm 7 mps 749 mmHg 83%
    13:00 +19°C° 0.2 mm 6 mps 749 mmHg 83%
    14:00 +17°C° 0.2 mm 5 mps 749 mmHg 84%
    15:00 +16°C° 0.2 mm 5 mps 750 mmHg 85%
    16:00 +17°C° 0.1 mm 4 mps 750 mmHg 84%
    17:00 +18°C° 0.1 mm 4 mps 750 mmHg 84%
    18:00 +18°C° 0.1 mm 4 mps 750 mmHg 84%
    19:00 +17°C° 0 mm 3 mps 751 mmHg 87%
    20:00 +14°C° 0 mm 3 mps 751 mmHg 90%
    21:00 +14°C° 0 mm 2 mps 752 mmHg 92%
    22:00 +14°C° 0 mm 2 mps 752 mmHg 93%
    23:00 +13°C° 0 mm 2 mps 752 mmHg 93%

    20 June, Thursday

    Time Temperature Precipitation Wind Pressure Humidity
    00:00 +13°C° 0 mm 2 mps 752 mmHg 94%
    01:00 +13°C° 0 mm 2 mps 752 mmHg 93%
    02:00 +13°C° 0 mm 2 mps 752 mmHg 92%
    03:00 +13°C° 0 mm 1 mps 752 mmHg 91%
    04:00 +13°C° 0 mm 2 mps 752 mmHg 90%
    05:00 +13°C° 0 mm 2 mps 752 mmHg 89%
    06:00 +13°C° 0 mm 2 mps 753 mmHg 88%
    07:00 +13°C° 0.1 mm 2 mps 753 mmHg 88%
    08:00 +14°C° 0.1 mm 1 mps 753 mmHg 87%
    09:00 +14°C° 0.1 mm 1 mps 753 mmHg 86%
    10:00 +15°C° 0 mm 1 mps 753 mmHg 82%
    11:00 +16°C° 0 mm 1 mps 754 mmHg 78%
    12:00 +18°C° 0 mm 1 mps 754 mmHg 74%
    13:00 +18°C° 0 mm 2 mps 754 mmHg 71%
    14:00 +19°C° 0 mm 2 mps 753 mmHg 68%
    15:00 +19°C° 0 mm 3 mps 753 mmHg 65%
    16:00 +19°C° 0 mm 3 mps 753 mmHg 68%
    17:00 +18°C° 0 mm 3 mps 754 mmHg 71%
    18:00 +18°C° 0 mm 3 mps 754 mmHg 74%
    19:00 +16°C° 0 mm 2 mps 754 mmHg 75%
    20:00 +15°C° 0 mm 2 mps 754 mmHg 76%
    21:00 +14°C° 0 mm 2 mps 754 mmHg 78%
    22:00 +14°C° 0 mm 2 mps 755 mmHg 77%
    23:00 +13°C° 0 mm 2 mps 755 mmHg 76%

    21 June, Friday

    Time Temperature Precipitation Wind Pressure Humidity
    00:00 +13°C° 0 mm 2 mps 755 mmHg 75%
    01:00 +12°C° 0 mm 2 mps 755 mmHg 79%
    02:00 +11°C° 0 mm 1 mps 755 mmHg 82%
    03:00 +10°C° 0 mm 1 mps 755 mmHg 85%
    04:00 +11°C° 0 mm 1 mps 755 mmHg 85%
    05:00 +12°C° 0 mm 2 mps 755 mmHg 84%
    06:00 +13°C° 0 mm 2 mps 756 mmHg 84%
    07:00 +14°C° 0 mm 2 mps 756 mmHg 77%
    08:00 +16°C° 0 mm 2 mps 756 mmHg 70%
    09:00 +17°C° 0 mm 2 mps 756 mmHg 64%
    10:00 +18°C° 0 mm 2 mps 756 mmHg 61%
    11:00 +19°C° 0 mm 2 mps 756 mmHg 58%
    12:00 +20°C° 0 mm 2 mps 756 mmHg 54%
    13:00 +20°C° 0 mm 2 mps 756 mmHg 55%
    14:00 +20°C° 0 mm 2 mps 756 mmHg 56%
    15:00 +20°C° 0 mm 2 mps 756 mmHg 57%
    16:00 +19°C° 0 mm 2 mps 756 mmHg 62%
    17:00 +19°C° 0 mm 2 mps 756 mmHg 67%
    18:00 +18°C° 0 mm 2 mps 756 mmHg 72%
    19:00 +16°C° 0 mm 2 mps 756 mmHg 77%
    20:00 +14°C° 0 mm 2 mps 756 mmHg 83%
    21:00 +12°C° 0 mm 2 mps 757 mmHg 89%
    22:00 +12°C° 0 mm 2 mps 757 mmHg 88%
    23:00 +11°C° 0 mm 1 mps 756 mmHg 87%

    22 June, Saturday

    Time Temperature Precipitation Wind Pressure Humidity
    00:00 +11°C° 0 mm 1 mps 756 mmHg 86%
    01:00 +11°C° 0 mm 1 mps 756 mmHg 86%
    02:00 +10°C° 0 mm 1 mps 756 mmHg 85%
    03:00 +10°C° 0 mm 1 mps 756 mmHg 85%
    04:00 +11°C° 0 mm 1 mps 756 mmHg 82%
    05:00 +12°C° 0 mm 1 mps 756 mmHg 80%
    06:00 +13°C° 0 mm 1 mps 756 mmHg 78%
    07:00 +14°C° 0 mm 2 mps 756 mmHg 74%
    08:00 +16°C° 0 mm 2 mps 756 mmHg 70%
    09:00 +17°C° 0 mm 2 mps 756 mmHg 66%
    10:00 +19°C° 0 mm 2 mps 756 mmHg 63%
    11:00 +20°C° 0 mm 2 mps 756 mmHg 60%
    12:00 +21°C° 0 mm 2 mps 756 mmHg 57%
    13:00 +21°C° 0 mm 2 mps 755 mmHg 58%
    14:00 +21°C° 0 mm 2 mps 755 mmHg 59%
    15:00 +21°C° 0 mm 2 mps 755 mmHg 60%
    16:00 +21°C° 0 mm 3 mps 755 mmHg 65%
    17:00 +20°C° 0 mm 3 mps 755 mmHg 70%
    18:00 +20°C° 0 mm 3 mps 755 mmHg 76%
    19:00 +18°C° 0 mm 3 mps 755 mmHg 80%
    20:00 +16°C° 0 mm 3 mps 755 mmHg 84%
    21:00 +13°C° 0 mm 3 mps 755 mmHg 88%
    22:00 +13°C° 0 mm 3 mps 755 mmHg 89%
    23:00 +13°C° 0 mm 2 mps 755 mmHg 90%
    Show more